Mankato, MN

2:35 AM CDT on September 16, 2019 (GMT -0500)
Mankato Regional

Weather History for KMKT - May, 2019

Change the Weather History Date:

Thursday, May 2, 2019

  Actual Average Record
Temperature  
Mean Temperature 46 °F -  
Max Temperature 53 °F 63 °F 82 °F (2015)
Min Temperature 39 °F 43 °F 26 °F (2002)
Degree Days  
Heating Degree Days 20    
Moisture  
Dew Point 40 °F    
Average Humidity 85    
Maximum Humidity 100    
Minimum Humidity 58    
Precipitation  
Precipitation 0.00 in - - ()
Sea Level Pressure  
Sea Level Pressure 30.14 in    
Wind  
Wind Speed 5 mph (WNW)    
Max Wind Speed 12 mph    
Max Gust Speed -    
Visibility 8 miles    
Events Rain    
Averages and records for this station are not official NWS values.
T = Trace of Precipitation, MM = Missing Value Source: NWS Daily Summary

Daily Weather History Graph

Daily Weather History Graph

Search for Another Location

Airport or City:

Astronomy

May. 02, 2019 Rise Set
Actual Time 6:05 AM CDT 8:20 PM CDT
Civil Twilight 5:33 AM CDT 8:52 PM CDT
Nautical Twilight 4:54 AM CDT 9:32 PM CDT
Astronomical Twilight 4:10 AM CDT 10:16 PM CDT
Moon 5:27 AM CDT (5/2) 6:00 PM CDT (5/2)
Length of Visible Light 15h 18m
Length of Day
14h 14m
Waning Crescent, 5% of the Moon is Illuminated
May 2
Waning Crescent
May 4
New
May 11
First Quarter
May 18
Full
May 26
Last Quarter

Hourly Weather History & Observations

Time (CDT) Temp. Windchill Dew Point Humidity Pressure Visibility Wind Dir Wind Speed Gust Speed Precip Events Conditions
12:12 AM 44.6 °F - 42.8 °F 93% 30.10 in 10.0 mi Calm Calm - 0.00 in Rain Light Rain
12:26 AM 44.6 °F - 42.8 °F 93% 30.09 in 10.0 mi Calm Calm - 0.00 in Rain Light Rain
1:48 AM 42.8 °F 40.1 °F 42.8 °F 100% 30.10 in 10.0 mi West 4.6 mph - N/A   Overcast
1:56 AM 43.0 °F 40.3 °F 42.1 °F 97% 30.13 in 10.0 mi West 4.6 mph - N/A   Overcast
2:56 AM 43.0 °F 41.3 °F 42.1 °F 97% 30.15 in 8.0 mi WSW 3.5 mph - N/A   Overcast
3:20 AM 42.8 °F - 42.8 °F 100% 30.10 in 9.0 mi Calm Calm - N/A   Overcast
3:36 AM 44.6 °F 43.1 °F 42.8 °F 93% 30.10 in 8.0 mi WSW 3.5 mph - N/A   Overcast
3:56 AM 44.1 °F 41.5 °F 43.0 °F 96% 30.13 in 8.0 mi West 4.6 mph - N/A   Overcast
4:09 AM 42.8 °F 39.3 °F 42.8 °F 100% 30.11 in 8.0 mi West 5.8 mph - N/A   Overcast
4:23 AM 42.8 °F 39.3 °F 42.8 °F 100% 30.11 in 7.0 mi West 5.8 mph - N/A   Overcast
4:43 AM 42.8 °F 38.6 °F 42.8 °F 100% 30.11 in 6.0 mi West 6.9 mph - N/A   Overcast
4:56 AM 43.0 °F 38.8 °F 42.1 °F 97% 30.14 in 7.0 mi West 6.9 mph - N/A   Overcast
5:08 AM 42.8 °F 38.6 °F 42.8 °F 100% 30.10 in 9.0 mi West 6.9 mph - N/A   Mostly Cloudy
5:16 AM 42.8 °F 39.3 °F 41.0 °F 93% 30.11 in 8.0 mi West 5.8 mph - N/A   Mostly Cloudy
5:56 AM 41.0 °F 38.0 °F 41.0 °F 100% 30.14 in 5.0 mi West 4.6 mph - N/A   Scattered Clouds
6:03 AM 41.0 °F 37.1 °F 41.0 °F 100% 30.11 in 2.5 mi West 5.8 mph - N/A   Scattered Clouds
6:09 AM 41.0 °F 37.1 °F 39.2 °F 93% 30.12 in 1.0 mi WSW 5.8 mph - N/A   Mist
6:19 AM 39.2 °F 35.0 °F 39.2 °F 100% 30.13 in 0.8 mi WSW 5.8 mph - 0.00 in Rain Light Rain
6:27 AM 39.2 °F 35.0 °F 39.2 °F 100% 30.13 in 1.2 mi West 5.8 mph - 0.00 in Rain Light Rain
6:31 AM 41.0 °F 37.1 °F 39.2 °F 93% 30.13 in 2.5 mi West 5.8 mph - 0.00 in Rain Light Rain
6:38 AM 39.2 °F 35.0 °F 39.2 °F 100% 30.13 in 4.0 mi West 5.8 mph - 0.00 in   Scattered Clouds
6:52 AM 41.0 °F 38.0 °F 41.0 °F 100% 30.13 in 6.0 mi West 4.6 mph - 0.00 in   Mostly Cloudy
6:56 AM 41.0 °F 38.0 °F 41.0 °F 100% 30.17 in 6.0 mi West 4.6 mph - 0.00 in   Mostly Cloudy
7:28 AM 42.8 °F 39.3 °F 41.0 °F 93% 30.14 in 6.0 mi West 5.8 mph - N/A   Mostly Cloudy
7:56 AM 43.0 °F 39.5 °F 42.1 °F 97% 30.17 in 10.0 mi West 5.8 mph - N/A   Overcast
8:34 AM 44.6 °F 40.2 °F 42.8 °F 93% 30.15 in 10.0 mi West 8.1 mph - N/A   Overcast
8:56 AM 45.0 °F 40.1 °F 42.1 °F 90% 30.17 in 10.0 mi West 9.2 mph - N/A   Overcast
10:19 AM 44.6 °F 39.7 °F 41.0 °F 87% 30.16 in 10.0 mi NW 9.2 mph - N/A   Overcast
10:28 AM 44.6 °F 40.2 °F 41.0 °F 87% 30.16 in 10.0 mi NNW 8.1 mph - N/A   Overcast
10:56 AM 46.0 °F 43.1 °F 39.9 °F 79% 30.19 in 10.0 mi NW 5.8 mph - N/A   Overcast
11:56 AM 46.0 °F 41.9 °F 42.1 °F 86% 30.19 in 8.0 mi NNW 8.1 mph - N/A   Overcast
12:56 PM 50.0 °F - 39.9 °F 68% 30.18 in 10.0 mi West 8.1 mph - N/A   Overcast
1:23 PM 50.0 °F - 39.2 °F 66% 30.16 in 10.0 mi West 9.2 mph - N/A   Overcast
1:56 PM 48.9 °F - 41.0 °F 74% 30.19 in 10.0 mi NW 11.5 mph - 0.00 in   Overcast
2:43 PM 51.8 °F - 39.2 °F 62% 30.16 in 10.0 mi NW 6.9 mph - N/A   Overcast
2:56 PM 50.0 °F - 39.9 °F 68% 30.18 in 10.0 mi NW 10.4 mph - N/A   Overcast
3:27 PM 51.8 °F - 39.2 °F 62% 30.15 in 10.0 mi WNW 11.5 mph - N/A   Overcast
3:56 PM 52.0 °F - 39.9 °F 63% 30.15 in 10.0 mi NNW 10.4 mph - N/A   Mostly Cloudy
4:10 PM 51.8 °F - 39.2 °F 62% 30.13 in 10.0 mi NNW 9.2 mph - N/A   Overcast
4:47 PM 51.8 °F - 37.4 °F 58% 30.12 in 10.0 mi NNW 8.1 mph - N/A   Overcast
4:56 PM 51.1 °F - 39.0 °F 63% 30.15 in 10.0 mi NNW 11.5 mph - N/A   Mostly Cloudy
5:56 PM 51.1 °F - 37.9 °F 61% 30.15 in 10.0 mi NW 10.4 mph - N/A   Mostly Cloudy
6:56 PM 51.1 °F - 37.0 °F 59% 30.15 in 10.0 mi NNW 5.8 mph - N/A   Clear
7:56 PM 48.9 °F - 37.0 °F 64% 30.15 in 10.0 mi NNW 5.8 mph - N/A   Clear
8:56 PM 46.9 °F - 36.0 °F 66% 30.17 in 10.0 mi NW 4.6 mph - N/A   Clear
9:56 PM 45.0 °F - 36.0 °F 71% 30.18 in 10.0 mi Calm Calm - N/A   Clear
10:56 PM 44.1 °F - 36.0 °F 73% 30.17 in 10.0 mi Calm Calm - N/A   Clear
11:56 PM 43.0 °F - 39.0 °F 86% 30.17 in 10.0 mi Calm Calm - N/A   Clear